| time (UTC) | temp F | wind direction | speed MPH | gust MPH | rain 1hr in | rain 24hr in | rain mn in | humidity % | barometer mb |
| 20260502201053 | 51 | 289 | 2.0 | 2.0 | 0.00 | 0.00 | 0.00 | 43 | 1015.8 |
| 20260502200548 | 51 | 31 | 2.0 | 3.0 | 0.00 | 0.00 | 0.00 | 46 | 1015.7 |
| 20260502200047 | 50 | 277 | 1.0 | 2.0 | 0.00 | 0.00 | 0.00 | 45 | 1015.8 |
| 20260502195544 | 51 | 253 | 2.0 | 3.0 | 0.00 | 0.00 | 0.00 | 43 | 1016.1 |
| 20260502195040 | 50 | 225 | 2.0 | 3.0 | 0.00 | 0.00 | 0.00 | 45 | 1016.0 |
| 20260502194537 | 51 | 58 | 3.0 | 3.0 | 0.00 | 0.00 | 0.00 | 44 | 1016.0 |
| 20260502194033 | 50 | 27 | 1.0 | 2.0 | 0.00 | 0.00 | 0.00 | 47 | 1016.1 |
| 20260502193531 | 49 | 219 | 1.0 | 2.0 | 0.00 | 0.00 | 0.00 | 46 | 1016.1 |
| 20260502193027 | 50 | 156 | 3.0 | 3.0 | 0.00 | 0.00 | 0.00 | 45 | 1016.1 |
| 20260502192522 | 51 | 279 | 2.0 | 3.0 | 0.00 | 0.00 | 0.00 | 45 | 1016.1 |
| 20260502192020 | 50 | 181 | 5.0 | 7.0 | 0.00 | 0.00 | 0.00 | 45 | 1016.1 |
| 20260502191517 | 51 | 111 | 1.0 | 3.0 | 0.00 | 0.00 | 0.00 | 45 | 1016.2 |
| 20260502191015 | 51 | 259 | 2.0 | 2.0 | 0.00 | 0.00 | 0.00 | 45 | 1016.2 |
| 20260502190512 | 50 | 111 | 1.0 | 1.0 | 0.00 | 0.00 | 0.00 | 46 | 1016.3 |
| 20260502190009 | 50 | 117 | 2.0 | 2.0 | 0.00 | 0.00 | 0.00 | 49 | 1016.4 |
| 20260502185504 | 50 | 356 | 3.0 | 3.0 | 0.00 | 0.00 | 0.00 | 46 | 1016.4 |
| 20260502185001 | 51 | 312 | 3.0 | 3.0 | 0.00 | 0.00 | 0.00 | 46 | 1016.4 |
| 20260502184456 | 51 | 146 | 1.0 | 1.0 | 0.00 | 0.00 | 0.00 | 47 | 1016.2 |
| 20260502183953 | 48 | 127 | 2.0 | 2.0 | 0.00 | 0.00 | 0.00 | 48 | 1016.9 |
| 20260502183449 | 49 | 199 | 1.0 | 1.0 | 0.00 | 0.00 | 0.00 | 49 | 1016.4 |
| 20260502182944 | 49 | 290 | 4.0 | 5.0 | 0.00 | 0.00 | 0.00 | 49 | 1016.7 |
| 20260502182440 | 49 | 107 | 1.0 | 2.0 | 0.00 | 0.00 | 0.00 | 49 | 1016.7 |
| 20260502181936 | 49 | 79 | 0.0 | 1.0 | 0.00 | 0.00 | 0.00 | 47 | 1016.8 |
| 20260502181435 | 49 | 133 | 1.0 | 2.0 | 0.00 | 0.00 | 0.00 | 46 | 1016.7 |
| 20260502180933 | 48 | 268 | 2.0 | 3.0 | 0.00 | 0.00 | 0.00 | 47 | 1016.8 |
| 20260502180430 | 48 | 278 | 5.0 | 7.0 | 0.00 | 0.00 | 0.00 | 46 | 1016.8 |
| 20260502170349 | 49 | 154 | 1.0 | 2.0 | 0.00 | 0.00 | 0.00 | 48 | 1017.3 |
| 20260502164336 | 48 | 120 | 1.0 | 1.0 | 0.00 | 0.00 | 0.00 | 51 | 1017.5 |
| 20260502163832 | 46 | 123 | 1.0 | 2.0 | 0.00 | 0.00 | 0.00 | 53 | 1017.4 |
| 20260502163328 | 46 | 270 | 3.0 | 3.0 | 0.00 | 0.00 | 0.00 | 52 | 1017.2 |
| 20260502162826 | 47 | 223 | 3.0 | 3.0 | 0.00 | 0.00 | 0.00 | 51 | 1017.5 |
| 20260502162322 | 47 | 216 | 1.0 | 2.0 | 0.00 | 0.00 | 0.00 | 51 | 1017.6 |
| 20260502161820 | 47 | 348 | 5.0 | 8.0 | 0.00 | 0.00 | 0.00 | 50 | 1017.4 |
| 20260502161316 | 46 | 160 | 2.0 | 3.0 | 0.00 | 0.00 | 0.00 | 51 | 1017.6 |
| 20260502160814 | 46 | 198 | 1.0 | 2.0 | 0.00 | 0.00 | 0.00 | 54 | 1017.6 |
| 20260502160312 | 45 | 193 | 3.0 | 3.0 | 0.00 | 0.00 | 0.00 | 55 | 1017.7 |
| 20260502152241 | 46 | 131 | 2.0 | 2.0 | 0.00 | 0.00 | 0.00 | 52 | 1017.5 |
| 20260502151739 | 46 | 215 | 1.0 | 1.0 | 0.00 | 0.00 | 0.00 | 52 | 1017.5 |
| 20260502151236 | 47 | 114 | 3.0 | 3.0 | 0.00 | 0.00 | 0.00 | 50 | 1017.8 |
| 20260502150733 | 48 | 195 | 2.0 | 3.0 | 0.00 | 0.00 | 0.00 | 48 | 1017.5 |
| 20260502150230 | 48 | 318 | 5.0 | 7.0 | 0.00 | 0.00 | 0.00 | 49 | 1017.8 |
| 20260502130618 | 39 | 311 | 1.0 | 1.0 | 0.00 | 0.00 | 0.00 | 73 | 1018.0 |
| 20260502130116 | 39 | 341 | 3.0 | 3.0 | 0.00 | 0.00 | 0.00 | 75 | 1018.1 |
| 20260502123602 | 37 | 74 | 1.0 | 1.0 | 0.00 | 0.00 | 0.00 | 82 | 1018.2 |
| 20260502123058 | 37 | 197 | 0.0 | 0.0 | 0.00 | 0.00 | 0.00 | 84 | 1018.1 |
| 20260502122555 | 37 | 79 | 1.0 | 2.0 | 0.00 | 0.00 | 0.00 | 85 | 1018.1 |
| 20260502122052 | 36 | 317 | 3.0 | 3.0 | 0.00 | 0.00 | 0.00 | 86 | 1017.8 |
| 20260502121549 | 36 | 116 | 0.0 | 1.0 | 0.00 | 0.00 | 0.00 | 88 | 1018.1 |
| 20260502121047 | 35 | 309 | 1.0 | 2.0 | 0.00 | 0.00 | 0.00 | 90 | 1018.0 |
| 20260502120543 | 33 | 134 | 0.0 | 0.0 | 0.00 | 0.00 | 0.00 | 91 | 1018.1 |
| 20260502115538 | 32 | 119 | 0.0 | 0.0 | 0.00 | 0.00 | 0.00 | 93 | 1017.9 |
| 20260502115033 | 32 | 130 | 0.0 | 0.0 | 0.00 | 0.00 | 0.00 | 93 | 1018.0 |
| 20260502114530 | 31 | 135 | 0.0 | 0.0 | 0.00 | 0.00 | 0.00 | 93 | 1017.9 |
| 20260502114027 | 31 | 130 | 0.0 | 0.0 | 0.00 | 0.00 | 0.00 | 93 | 1017.9 |
| 20260502113525 | 31 | 129 | 0.0 | 0.0 | 0.00 | 0.00 | 0.00 | 93 | 1017.9 |
| 20260502113024 | 30 | 134 | 0.0 | 0.0 | 0.00 | 0.00 | 0.00 | 93 | 1017.8 |
| 20260502112521 | 30 | 129 | 0.0 | 0.0 | 0.00 | 0.00 | 0.00 | 93 | 1017.9 |
| 20260502112018 | 30 | 130 | 0.0 | 0.0 | 0.00 | 0.00 | 0.00 | 93 | 1017.6 |
| 20260502111515 | 29 | 130 | 0.0 | 0.0 | 0.00 | 0.00 | 0.00 | 93 | 1017.8 |
| 20260502111013 | 30 | 133 | 0.0 | 0.0 | 0.00 | 0.00 | 0.00 | 93 | 1017.7 |
| 20260502110510 | 30 | 133 | 0.0 | 0.0 | 0.00 | 0.00 | 0.00 | 92 | 1017.7 |
| 20260502110008 | 30 | 130 | 0.0 | 0.0 | 0.00 | 0.00 | 0.00 | 92 | 1017.6 |
| 20260502105505 | 30 | 132 | 0.0 | 0.0 | 0.00 | 0.00 | 0.00 | 92 | 1017.7 |
| 20260502105002 | 30 | 129 | 0.0 | 0.0 | 0.00 | 0.00 | 0.00 | 91 | 1017.8 |
| 20260502104459 | 30 | 131 | 0.0 | 0.0 | 0.00 | 0.00 | 0.00 | 92 | 1017.7 |
| 20260502103956 | 30 | 127 | 0.0 | 0.0 | 0.00 | 0.00 | 0.00 | 92 | 1017.5 |
| 20260502103454 | 30 | 127 | 0.0 | 0.0 | 0.00 | 0.00 | 0.00 | 91 | 1017.5 |
| 20260502102951 | 30 | 128 | 0.0 | 0.0 | 0.00 | 0.00 | 0.00 | 91 | 1017.6 |
| 20260502102448 | 31 | 126 | 0.0 | 0.0 | 0.00 | 0.00 | 0.00 | 90 | 1017.7 |
| 20260502101944 | 31 | 126 | 0.0 | 0.0 | 0.00 | 0.00 | 0.00 | 89 | 1017.5 |
| 20260502101443 | 31 | 129 | 0.0 | 0.0 | 0.00 | 0.00 | 0.00 | 89 | 1017.6 |
| 20260502100941 | 31 | 129 | 0.0 | 0.0 | 0.00 | 0.00 | 0.00 | 88 | 1017.5 |
| 20260502100440 | 32 | 129 | 0.0 | 0.0 | 0.00 | 0.00 | 0.00 | 88 | 1017.6 |
| 20260502091414 | 33 | 129 | 0.0 | 0.0 | 0.00 | 0.00 | 0.00 | 83 | 1017.3 |
| 20260502090911 | 34 | 133 | 0.0 | 0.0 | 0.00 | 0.00 | 0.00 | 82 | 1017.3 |
| 20260502090408 | 34 | 136 | 0.0 | 0.0 | 0.00 | 0.00 | 0.00 | 82 | 1017.3 |
| 20260502071303 | 35 | 134 | 0.0 | 0.0 | 0.00 | 0.00 | 0.00 | 79 | 1016.9 |
| 20260502070801 | 35 | 134 | 0.0 | 0.0 | 0.00 | 0.00 | 0.00 | 78 | 1017.2 |
| 20260502070258 | 35 | 134 | 0.0 | 0.0 | 0.00 | 0.00 | 0.00 | 78 | 1017.1 |
| 20260502065757 | 35 | 152 | 0.0 | 0.0 | 0.00 | 0.00 | 0.00 | 78 | 1017.2 |
| 20260502065254 | 35 | 135 | 0.0 | 0.0 | 0.00 | 0.00 | 0.00 | 79 | 1017.0 |
| 20260502064753 | 35 | 135 | 0.0 | 0.0 | 0.00 | 0.00 | 0.00 | 78 | 1017.1 |
| 20260502064250 | 35 | 129 | 0.0 | 0.0 | 0.00 | 0.00 | 0.00 | 78 | 1017.0 |
| 20260502063747 | 35 | 131 | 0.0 | 0.0 | 0.00 | 0.00 | 0.00 | 78 | 1017.2 |
| 20260502063245 | 35 | 128 | 0.0 | 0.0 | 0.00 | 0.00 | 0.00 | 78 | 1017.0 |
| 20260502062742 | 35 | 127 | 0.0 | 0.0 | 0.00 | 0.00 | 0.00 | 78 | 1017.1 |
| 20260502062239 | 35 | 124 | 0.0 | 0.0 | 0.00 | 0.00 | 0.00 | 78 | 1017.3 |
| 20260502061738 | 35 | 128 | 0.0 | 0.0 | 0.00 | 0.00 | 0.00 | 77 | 1017.2 |
| 20260502061235 | 35 | 127 | 0.0 | 0.0 | 0.00 | 0.00 | 0.00 | 78 | 1017.5 |
| 20260502060730 | 35 | 131 | 0.0 | 0.0 | 0.00 | 0.00 | 0.00 | 78 | 1017.4 |
| 20260502060226 | 35 | 132 | 0.0 | 0.0 | 0.00 | 0.00 | 0.00 | 77 | 1017.2 |
| 20260502055725 | 35 | 130 | 0.0 | 0.0 | 0.00 | 0.00 | 0.00 | 77 | 1017.1 |
| 20260502055222 | 36 | 128 | 0.0 | 0.0 | 0.00 | 0.00 | 0.00 | 76 | 1017.3 |
| 20260502054721 | 36 | 132 | 0.0 | 0.0 | 0.00 | 0.00 | 0.00 | 76 | 1017.3 |
| 20260502054218 | 36 | 127 | 0.0 | 0.0 | 0.00 | 0.00 | 0.00 | 76 | 1017.3 |
| 20260502053716 | 36 | 140 | 0.0 | 0.0 | 0.00 | 0.00 | 0.00 | 75 | 1017.3 |
| 20260502053212 | 36 | 92 | 0.0 | 0.0 | 0.00 | 0.00 | 0.00 | 75 | 1017.2 |
| 20260502052711 | 36 | 133 | 0.0 | 0.0 | 0.00 | 0.00 | 0.00 | 75 | 1017.2 |
| 20260502052209 | 36 | 130 | 0.0 | 0.0 | 0.00 | 0.00 | 0.00 | 74 | 1017.2 |
| 20260502051706 | 36 | 135 | 0.0 | 0.0 | 0.00 | 0.00 | 0.00 | 74 | 1017.4 |
| 20260502051205 | 37 | 130 | 0.0 | 0.0 | 0.00 | 0.00 | 0.00 | 74 | 1017.3 |
| 20260502050700 | 37 | 134 | 0.0 | 0.0 | 0.00 | 0.00 | 0.00 | 73 | 1017.3 |
| 20260502050157 | 36 | 113 | 1.0 | 1.0 | 0.00 | 0.00 | 0.00 | 73 | 1017.2 |
| 20260502045654 | 36 | 127 | 0.0 | 0.0 | 0.00 | 0.00 | 0.00 | 74 | 1017.2 |
| 20260502045151 | 36 | 128 | 0.0 | 0.0 | 0.00 | 0.00 | 0.00 | 73 | 1017.1 |
| 20260502044648 | 37 | 129 | 0.0 | 0.0 | 0.00 | 0.00 | 0.00 | 72 | 1017.1 |
| 20260502044144 | 37 | 136 | 0.0 | 0.0 | 0.00 | 0.00 | 0.00 | 72 | 1017.0 |
| 20260502043642 | 37 | 275 | 1.0 | 2.0 | 0.00 | 0.00 | 0.00 | 71 | 1017.2 |
| 20260502043139 | 37 | 129 | 0.0 | 0.0 | 0.00 | 0.00 | 0.00 | 71 | 1017.1 |
| 20260502042638 | 37 | 99 | 1.0 | 1.0 | 0.00 | 0.00 | 0.00 | 71 | 1017.0 |
| 20260502042135 | 37 | 139 | 1.0 | 1.0 | 0.00 | 0.00 | 0.00 | 70 | 1017.0 |
| 20260502041633 | 38 | 119 | 1.0 | 1.0 | 0.00 | 0.00 | 0.00 | 70 | 1017.0 |
| 20260502041130 | 38 | 98 | 1.0 | 2.0 | 0.00 | 0.00 | 0.00 | 69 | 1016.9 |
| 20260502040627 | 38 | 153 | 0.0 | 0.0 | 0.00 | 0.00 | 0.00 | 69 | 1016.8 |
| 20260502040124 | 38 | 109 | 2.0 | 3.0 | 0.00 | 0.00 | 0.00 | 69 | 1017.1 |
| 20260502035620 | 38 | 220 | 0.0 | 1.0 | 0.00 | 0.00 | 0.00 | 69 | 1017.0 |
| 20260502035117 | 38 | 89 | 2.0 | 2.0 | 0.00 | 0.00 | 0.00 | 68 | 1016.9 |
| 20260502034615 | 38 | 121 | 1.0 | 1.0 | 0.00 | 0.00 | 0.00 | 68 | 1017.0 |
| 20260502034113 | 38 | 349 | 3.0 | 3.0 | 0.00 | 0.00 | 0.00 | 68 | 1016.9 |
| 20260502033611 | 38 | 95 | 2.0 | 2.0 | 0.00 | 0.00 | 0.00 | 68 | 1016.9 |
| 20260502033108 | 38 | 130 | 0.0 | 1.0 | 0.00 | 0.00 | 0.00 | 68 | 1016.9 |
| 20260502032604 | 38 | 131 | 3.0 | 5.0 | 0.00 | 0.00 | 0.00 | 67 | 1016.8 |
| 20260502032101 | 38 | 92 | 2.0 | 2.0 | 0.00 | 0.00 | 0.00 | 67 | 1016.7 |
| 20260502031559 | 39 | 109 | 0.0 | 1.0 | 0.00 | 0.00 | 0.00 | 67 | 1016.7 |
| 20260502031056 | 39 | 293 | 3.0 | 3.0 | 0.00 | 0.00 | 0.00 | 66 | 1016.9 |
| 20260502030555 | 39 | 129 | 0.0 | 1.0 | 0.00 | 0.00 | 0.00 | 66 | 1016.8 |
| 20260502030052 | 39 | 339 | 3.0 | 3.0 | 0.00 | 0.00 | 0.00 | 65 | 1016.8 |
| 20260502025549 | 39 | 303 | 3.0 | 3.0 | 0.00 | 0.00 | 0.00 | 64 | 1016.5 |
| 20260502025048 | 39 | 299 | 3.0 | 3.0 | 0.00 | 0.00 | 0.00 | 64 | 1016.7 |
| 20260502024545 | 39 | 2 | 2.0 | 2.0 | 0.00 | 0.00 | 0.00 | 64 | 1016.8 |
| 20260502024043 | 39 | 121 | 1.0 | 2.0 | 0.00 | 0.00 | 0.00 | 63 | 1016.5 |
| 20260502023540 | 39 | 313 | 5.0 | 7.0 | 0.00 | 0.00 | 0.00 | 63 | 1016.5 |
| 20260502023037 | 39 | 89 | 1.0 | 1.0 | 0.00 | 0.00 | 0.00 | 62 | 1016.7 |
| 20260502022534 | 39 | 354 | 4.0 | 6.0 | 0.00 | 0.00 | 0.00 | 61 | 1016.7 |
| 20260502022032 | 39 | 82 | 3.0 | 3.0 | 0.00 | 0.00 | 0.00 | 60 | 1016.7 |
| 20260502021529 | 39 | 113 | 0.0 | 0.0 | 0.00 | 0.00 | 0.00 | 58 | 1016.5 |
| 20260502021026 | 39 | 110 | 0.0 | 0.0 | 0.00 | 0.00 | 0.00 | 57 | 1016.4 |
| 20260502020523 | 39 | 307 | 3.0 | 3.0 | 0.00 | 0.00 | 0.00 | 56 | 1016.3 |
| 20260502020020 | 39 | 274 | 5.0 | 7.0 | 0.00 | 0.00 | 0.00 | 57 | 1016.5 |
| 20260502015518 | 40 | 47 | 1.0 | 1.0 | 0.00 | 0.00 | 0.00 | 56 | 1016.3 |
| 20260502015014 | 40 | 72 | 0.0 | 0.0 | 0.00 | 0.00 | 0.00 | 56 | 1016.4 |
| 20260502014511 | 40 | 82 | 2.0 | 3.0 | 0.00 | 0.00 | 0.00 | 56 | 1016.2 |
| 20260502014008 | 40 | 89 | 2.0 | 2.0 | 0.00 | 0.00 | 0.00 | 56 | 1016.0 |
| 20260502013503 | 40 | 117 | 2.0 | 3.0 | 0.00 | 0.00 | 0.00 | 55 | 1016.3 |
| 20260502013000 | 40 | 332 | 2.0 | 2.0 | 0.00 | 0.00 | 0.00 | 57 | 1016.2 |
| 20260502012458 | 40 | 190 | 3.0 | 3.0 | 0.00 | 0.00 | 0.00 | 56 | 1016.0 |
| 20260502011955 | 40 | 75 | 1.0 | 1.0 | 0.00 | 0.00 | 0.00 | 56 | 1016.0 |
| 20260502011451 | 40 | 280 | 3.0 | 3.0 | 0.00 | 0.00 | 0.00 | 56 | 1015.9 |
| 20260502010948 | 40 | 320 | 3.0 | 3.0 | 0.00 | 0.00 | 0.00 | 56 | 1015.9 |
| 20260502010445 | 41 | 331 | 2.0 | 3.0 | 0.00 | 0.00 | 0.00 | 56 | 1016.0 |
| 20260502005941 | 41 | 340 | 3.0 | 3.0 | 0.00 | 0.00 | 0.00 | 55 | 1015.9 |
| 20260502005439 | 41 | 34 | 1.0 | 2.0 | 0.00 | 0.00 | 0.00 | 56 | 1015.8 |
| 20260502004937 | 41 | 263 | 1.0 | 2.0 | 0.00 | 0.00 | 0.00 | 57 | 1015.8 |
| 20260502004438 | 41 | 236 | 5.0 | 8.0 | 0.00 | 0.00 | 0.00 | 55 | 1015.7 |
| 20260502003935 | 42 | 309 | 4.0 | 5.0 | 0.00 | 0.00 | 0.00 | 54 | 1015.4 |
| 20260502003432 | 42 | 294 | 5.0 | 8.0 | 0.00 | 0.00 | 0.00 | 54 | 1015.7 |
| 20260502002928 | 43 | 302 | 3.0 | 6.0 | 0.00 | 0.00 | 0.00 | 54 | 1015.7 |
| 20260502002426 | 43 | 257 | 3.0 | 3.0 | 0.00 | 0.00 | 0.00 | 53 | 1015.2 |
| 20260502001923 | 43 | 33 | 1.0 | 2.0 | 0.00 | 0.00 | 0.00 | 55 | 1015.5 |
| 20260502001421 | 43 | 252 | 2.0 | 2.0 | 0.00 | 0.00 | 0.00 | 57 | 1015.3 |
| 20260502000918 | 43 | 325 | 3.0 | 3.0 | 0.00 | 0.00 | 0.00 | 58 | 1015.2 |
| 20260502000417 | 43 | 128 | 0.0 | 0.0 | 0.00 | 0.00 | 0.00 | 58 | 1015.2 |
| 20260501235912 | 43 | 312 | 2.0 | 2.0 | 0.00 | 0.00 | 0.00 | 57 | 1015.1 |
| 20260501235408 | 43 | 24 | 3.0 | 3.0 | 0.00 | 0.00 | 0.00 | 55 | 1015.2 |
| 20260501234903 | 44 | 109 | 1.0 | 2.0 | 0.00 | 0.00 | 0.00 | 53 | 1015.1 |
| 20260501234400 | 44 | 289 | 4.0 | 5.0 | 0.00 | 0.00 | 0.00 | 51 | 1015.0 |
| 20260501233859 | 44 | 325 | 4.0 | 6.0 | 0.00 | 0.00 | 0.00 | 51 | 1014.9 |
| 20260501233356 | 44 | 89 | 1.0 | 1.0 | 0.00 | 0.00 | 0.00 | 53 | 1015.0 |
| 20260501232851 | 44 | 311 | 2.0 | 2.0 | 0.00 | 0.00 | 0.00 | 51 | 1014.8 |
| 20260501232349 | 45 | 354 | 2.0 | 2.0 | 0.00 | 0.00 | 0.00 | 52 | 1014.8 |
| 20260501231846 | 45 | 122 | 1.0 | 1.0 | 0.00 | 0.00 | 0.00 | 52 | 1014.8 |
| 20260501231344 | 45 | 130 | 0.0 | 0.0 | 0.00 | 0.00 | 0.00 | 53 | 1014.9 |
| 20260501230842 | 45 | 50 | 1.0 | 1.0 | 0.00 | 0.00 | 0.00 | 52 | 1014.9 |
| 20260501230341 | 45 | 323 | 3.0 | 3.0 | 0.00 | 0.00 | 0.00 | 50 | 1014.8 |
| 20260501225838 | 45 | 25 | 3.0 | 3.0 | 0.00 | 0.00 | 0.00 | 51 | 1014.6 |
| 20260501225336 | 45 | 316 | 4.0 | 5.0 | 0.00 | 0.00 | 0.00 | 51 | 1014.8 |
| 20260501224831 | 45 | 128 | 0.0 | 0.0 | 0.00 | 0.00 | 0.00 | 53 | 1015.0 |
| 20260501224329 | 45 | 165 | 0.0 | 1.0 | 0.00 | 0.00 | 0.00 | 53 | 1015.0 |
| 20260501223825 | 45 | 123 | 0.0 | 0.0 | 0.00 | 0.00 | 0.00 | 54 | 1014.8 |
| 20260501223321 | 44 | 160 | 1.0 | 1.0 | 0.00 | 0.00 | 0.00 | 54 | 1014.9 |
| 20260501222817 | 44 | 288 | 1.0 | 2.0 | 0.00 | 0.00 | 0.00 | 54 | 1014.9 |
| 20260501222315 | 44 | 164 | 2.0 | 3.0 | 0.00 | 0.00 | 0.00 | 53 | 1014.8 |
| 20260501221811 | 44 | 323 | 1.0 | 1.0 | 0.00 | 0.00 | 0.00 | 54 | 1014.8 |
| 20260501221309 | 44 | 306 | 0.0 | 1.0 | 0.00 | 0.00 | 0.00 | 55 | 1014.8 |
| 20260501220807 | 44 | 107 | 0.0 | 0.0 | 0.00 | 0.00 | 0.00 | 56 | 1014.8 |
| 20260501220303 | 45 | 133 | 0.0 | 0.0 | 0.00 | 0.00 | 0.00 | 55 | 1014.8 |
| 20260501215800 | 45 | 151 | 0.0 | 0.0 | 0.00 | 0.00 | 0.00 | 58 | 1015.0 |
| 20260501215256 | 45 | 159 | 1.0 | 1.0 | 0.00 | 0.00 | 0.00 | 59 | 1014.8 |
| 20260501214751 | 45 | 325 | 1.0 | 2.0 | 0.00 | 0.00 | 0.00 | 60 | 1014.9 |
| 20260501214247 | 45 | 127 | 0.0 | 0.0 | 0.00 | 0.00 | 0.00 | 59 | 1014.7 |
| 20260501213743 | 45 | 131 | 0.0 | 1.0 | 0.00 | 0.00 | 0.00 | 58 | 1014.4 |
| 20260501213240 | 45 | 128 | 0.0 | 0.0 | 0.00 | 0.00 | 0.00 | 60 | 1014.5 |
| 20260501212736 | 45 | 260 | 3.0 | 5.0 | 0.00 | 0.00 | 0.00 | 58 | 1014.7 |
| 20260501212233 | 44 | 129 | 0.0 | 0.0 | 0.00 | 0.00 | 0.00 | 60 | 1014.6 |
| 20260501211730 | 44 | 111 | 0.0 | 0.0 | 0.00 | 0.00 | 0.00 | 60 | 1014.7 |
| 20260501211227 | 44 | 133 | 0.0 | 1.0 | 0.00 | 0.00 | 0.00 | 60 | 1014.4 |
| 20260501210724 | 44 | 140 | 0.0 | 0.0 | 0.00 | 0.00 | 0.00 | 60 | 1014.4 |
| 20260501210221 | 44 | 132 | 0.0 | 0.0 | 0.00 | 0.00 | 0.00 | 61 | 1014.6 |
| 20260501205717 | 44 | 176 | 0.0 | 1.0 | 0.00 | 0.00 | 0.00 | 60 | 1014.6 |
| 20260501205214 | 44 | 267 | 1.0 | 1.0 | 0.00 | 0.00 | 0.00 | 61 | 1014.5 |
| 20260501204711 | 44 | 184 | 0.0 | 0.0 | 0.00 | 0.00 | 0.00 | 63 | 1014.7 |
| 20260501204207 | 44 | 129 | 1.0 | 1.0 | 0.00 | 0.00 | 0.00 | 62 | 1014.6 |
| 20260501203704 | 44 | 113 | 1.0 | 2.0 | 0.00 | 0.00 | 0.00 | 62 | 1014.5 |
| 20260501203202 | 44 | 89 | 2.0 | 3.0 | 0.00 | 0.00 | 0.00 | 60 | 1014.8 |
| 20260501202658 | 44 | 142 | 2.0 | 3.0 | 0.00 | 0.00 | 0.00 | 61 | 1014.7 |
| 20260501202155 | 44 | 127 | 0.0 | 0.0 | 0.00 | 0.00 | 0.00 | 60 | 1014.6 |
| 20260501201652 | 44 | 134 | 0.0 | 0.0 | 0.00 | 0.00 | 0.00 | 59 | 1014.5 |